CW2049 Weather Reports


Display with metric or nautical units.
time (UTC)temp
F
wind
direction
speed
MPH
gust
MPH
rain 1hr
in
rain 24hr
in
rain mn
in
humidity
%
barometer
mb
20260507113020 51 359 0.0 0.0 0.00 0.00 0.00 74 1013.4
20260507111518 50 359 0.0 0.0 0.00 0.00 0.00 74 1013.4
20260507110025 52 359 0.0 0.0 0.00 0.00 0.00 72 1013.4
20260507104511 52 359 0.0 0.0 0.00 0.00 0.00 71 1013.3
20260507103007 54 359 0.0 0.0 0.00 0.00 0.00 67 1013.2
20260507101504 56 359 0.0 0.0 0.00 0.00 0.00 64 1013.3
20260507100003 56 359 0.0 0.0 0.00 0.00 0.00 64 1013.1
20260507094600 56 359 0.0 0.0 0.00 0.00 0.00 64 1013.1
20260507093100 58 359 0.0 5.0 0.00 0.00 0.00 61 1012.9
20260507091557 58 359 0.0 4.0 0.00 0.00 0.00 61 1012.8
20260507090052 59 359 0.0 0.0 0.00 0.00 0.00 60 1012.8
20260507084552 60 359 0.0 2.0 0.00 0.00 0.00 56 1012.8
20260507083049 60 359 0.0 13.0 0.00 0.00 0.00 55 1012.7
20260507081548 61 359 0.0 4.0 0.00 0.00 0.00 56 1012.7
20260507080046 61 359 0.0 1.0 0.00 0.00 0.00 55 1012.5
20260507074554 62 359 0.0 0.0 0.00 0.00 0.00 55 1012.3
20260507073044 62 359 0.0 0.0 0.00 0.00 0.00 51 1012.3
20260507071538 64 359 0.0 0.0 0.00 0.00 0.00 49 1012.1
20260507070036 64 359 0.0 0.0 0.00 0.00 0.00 48 1012.0
20260507064532 65 359 0.0 0.0 0.00 0.00 0.00 47 1012.1
20260507063046 65 359 0.0 1.0 0.00 0.00 0.00 50 1012.1
20260507061534 65 359 0.0 0.0 0.00 0.00 0.00 47 1012.0
20260507060041 63 359 0.0 0.0 0.00 0.00 0.00 52 1011.8
20260507054531 63 359 0.0 0.0 0.00 0.00 0.00 53 1011.8
20260507053031 63 110 0.0 0.0 0.00 0.00 0.00 51 1011.8
20260507051631 64 359 0.0 0.0 0.00 0.00 0.00 49 1011.9
20260507050035 65 359 0.0 0.0 0.00 0.00 0.00 49 1011.8
20260507044529 66 359 0.0 0.0 0.00 0.00 0.00 48 1011.8
20260507043029 67 359 0.0 0.0 0.00 0.00 0.00 44 1011.8
20260507041528 69 359 0.0 0.0 0.00 0.00 0.00 40 1011.7
20260507040028 70 359 0.0 0.0 0.00 0.00 0.00 36 1011.6
20260507034534 70 359 0.0 0.0 0.00 0.00 0.00 37 1011.5
20260507033027 70 359 0.0 1.0 0.00 0.00 0.00 38 1011.4
20260507031526 73 359 0.0 0.0 0.00 0.00 0.00 36 1011.3
20260507030026 74 108 0.0 0.0 0.00 0.00 0.00 35 1011.2
20260507024527 75 108 0.0 0.0 0.00 0.00 0.00 34 1011.1
20260507023025 76 100 0.0 4.0 0.00 0.00 0.00 33 1011.0
20260507021524 77 298 0.0 5.0 0.00 0.00 0.00 33 1010.9
20260507020038 77 214 0.0 1.0 0.00 0.00 0.00 31 1010.8
20260507014523 78 303 0.0 1.0 0.00 0.00 0.00 30 1010.6
20260507013040 78 258 0.0 0.0 0.00 0.00 0.00 29 1010.5
20260507011523 79 318 0.0 0.0 0.00 0.00 0.00 30 1010.6
20260507010026 80 204 0.0 0.0 0.00 0.00 0.00 29 1010.3
20260507004523 80 210 0.0 5.0 0.00 0.00 0.00 26 1010.2
20260507003023 80 318 0.0 0.0 0.00 0.00 0.00 25 1009.9
20260507001529 81 322 0.0 1.0 0.00 0.00 0.00 26 1010.0
20260507000022 80 253 3.0 18.0 0.00 0.00 0.00 24 1010.0
20260506234528 82 312 3.0 10.0 0.00 0.00 0.00 25 1010.0
20260506233019 83 335 0.0 0.0 0.00 0.00 0.00 25 1009.7
20260506231518 82 322 0.0 2.0 0.00 0.00 0.00 25 1010.0
20260506230016 82 123 0.0 11.0 0.00 0.00 0.00 25 1010.0
20260506224514 83 287 0.0 3.0 0.00 0.00 0.00 25 1010.3
20260506223014 83 98 0.0 5.0 0.00 0.00 0.00 25 1010.4
20260506221511 81 144 0.0 10.0 0.00 0.00 0.00 27 1010.2
20260506220020 82 126 1.0 11.0 0.00 0.00 0.00 27 1010.5
20260506214508 81 136 4.0 13.0 0.00 0.00 0.00 28 1010.5
20260506213006 81 125 7.0 16.0 0.00 0.00 0.00 28 1010.7
20260506211504 81 122 5.0 15.0 0.00 0.00 0.00 29 1010.8
20260506210000 80 118 7.0 16.0 0.00 0.00 0.00 29 1011.2
20260506204559 80 122 1.0 15.0 0.00 0.00 0.00 30 1011.3
20260506203056 79 117 2.0 14.0 0.00 0.00 0.00 30 1011.5
20260506201557 79 114 0.0 15.0 0.00 0.00 0.00 30 1011.5
20260506200051 78 139 7.0 17.0 0.00 0.00 0.00 30 1011.7
20260506194550 77 137 8.0 20.0 0.00 0.00 0.00 31 1011.9
20260506193044 77 106 7.0 19.0 0.00 0.00 0.00 31 1012.3
20260506191542 76 133 1.0 15.0 0.00 0.00 0.00 32 1012.6
20260506190039 74 115 6.0 15.0 0.00 0.00 0.00 32 1012.7
20260506184540 75 119 6.0 15.0 0.00 0.00 0.00 32 1012.9
20260506183039 74 143 7.0 15.0 0.00 0.00 0.00 32 1013.0
20260506181540 75 154 10.0 18.0 0.00 0.00 0.00 32 1012.9
20260506180041 75 116 8.0 18.0 0.00 0.00 0.00 32 1012.8
20260506174536 75 129 9.0 19.0 0.00 0.00 0.00 33 1012.9
20260506173042 74 113 11.0 19.0 0.00 0.00 0.00 33 1012.9
20260506171530 73 133 6.0 15.0 0.00 0.00 0.00 35 1013.0
20260506170025 70 143 0.0 2.0 0.00 0.00 0.00 39 1013.4
20260506164524 67 146 0.0 0.0 0.00 0.00 0.00 39 1013.6
20260506163023 65 158 0.0 0.0 0.00 0.00 0.00 41 1013.9
20260506161514 63 158 0.0 0.0 0.00 0.00 0.00 44 1014.1
20260506160015 62 158 0.0 0.0 0.00 0.00 0.00 44 1014.4
20260506154507 61 158 0.0 0.0 0.00 0.00 0.00 50 1014.7
20260506153002 59 359 0.0 0.0 0.00 0.00 0.00 51 1014.8
20260506151558 55 359 0.0 0.0 0.00 0.00 0.00 59 1014.9
20260506150057 53 359 0.0 0.0 0.00 0.00 0.00 61 1015.2
20260506144556 52 359 0.0 0.0 0.00 0.00 0.00 67 1015.3
20260506143056 51 359 0.0 0.0 0.00 0.00 0.00 65 1015.4
20260506141609 49 359 0.0 0.0 0.00 0.00 0.00 73 1015.5
20260506140054 48 359 0.0 0.0 0.00 0.00 0.00 73 1015.6
20260506134553 48 359 0.0 0.0 0.00 0.00 0.00 73 1015.7
20260506133102 48 359 0.0 0.0 0.00 0.00 0.00 72 1015.6
20260506131554 49 359 0.0 0.0 0.00 0.00 0.00 70 1015.5
20260506130049 49 359 0.0 0.0 0.00 0.00 0.00 69 1015.4
20260506124548 48 359 0.0 0.0 0.00 0.00 0.00 72 1015.4
20260506123048 48 359 0.0 0.0 0.00 0.00 0.00 72 1015.3
20260506121555 48 359 0.0 0.0 0.00 0.00 0.00 75 1015.2
20260506120107 48 359 0.0 0.0 0.00 0.00 0.00 74 1015.0
20260506114545 49 359 0.0 0.0 0.00 0.00 0.00 73 1014.9